Regional Weather Roundup
Issued by NWS

Home | Current Version | Previous Version | Graphics & Text | Print | Product List | Glossary On
Versions: 1 2 3 4 5 6 7 8 9 10 11 12 13 14 15 16 17 18 19 20 21 22 23 24 25 26 27 28 29 30 31 32 33 34 35 36 37 38 39 40 41 42 43 44 45 46 47 48 49 50
000
ASUS45 KABQ 212110
RWRNM
WEATHER ROUNDUP FOR NEW MEXICO
NATIONAL WEATHER SERVICE ALBUQUERQUE NM
200 PM MST SUN DEC 21 2014

NOTE: "FAIR" MEANS FEW OR NO CLOUDS BELOW 12,000 FEET AGL WITH NO
       SIGNIFICANT WEATHER OR OBSTRUCTIONS TO VISION.

      THIS PRODUCT IS RELEASED AS TWO VERSIONS.  ONE VERSION NEAR
      THE TOP OF THE HOUR CONTAINING PRELIMINARY DATA FROM ALBUQUERQUE
      AND OTHER STATIONS.  A FINAL VERSION WITH ADDITIONAL DATA IS
      ISSUED ABOUT 10 MINUTES AFTER THE HOUR.

NMZ501-503-504-510>518-212200-
NORTHWEST PLATEAU/NORTHCENTRAL MOUNTAINS

CITY           SKY/WX    TMP DP  RH WIND       PRES   REMARKS
FARMINGTON     SUNNY     42  29  59 W10       29.97S
LOS ALAMOS     PTSUNNY   38  26  63 E3        29.92F
SANTA FE       MOSUNNY   43  25  49 N12       29.90F
TAOS           CLOUDY    37  25  60 SW15      29.91S WCI  28
ANGEL FIRE     FAIR      32  24  73 W33G43    29.84R WCI  17

$$
NMZ402-403-502-505>509-212200-
WESTCENTRAL MOUNTAINS/SOUTHWEST MOUNTAINS

CITY           SKY/WX    TMP DP  RH WIND       PRES   REMARKS
GALLUP         PTSUNNY   45  31  58 SW14      30.02F
GRANTS         PTSUNNY   53  25  33 NW18G28   29.97F
SILVER CITY    SUNNY     54  27  35 W22       30.01S

$$
NMZ407-409-411-412-212200-
SOUTHERN DESERTS

CITY           SKY/WX    TMP DP  RH WIND       PRES   REMARKS
LORDSBURG      FAIR      55  32  41 W15       30.01F
DEMING         MOSUNNY   59  25  27 W24G33    29.97S
LAS CRUCES     MOSUNNY   58  29  33 W14G23    29.97S
HOLLOMAN AFB   MOSUNNY   55  28  35 CALM      29.93F
ALAMOGORDO     PTSUNNY   54  27  35 CALM      29.95F
T OR C         MOSUNNY   55  24  30 S13       29.92F

$$
NMZ519>523-212200-
CENTRAL VALLEYS/CENTRAL HIGHLANDS

CITY           SKY/WX    TMP DP  RH WIND       PRES   REMARKS
ALBUQUERQUE    PTSUNNY   48  27  44 N5        29.93F
DOUBLE EAGLE   PTSUNNY   46  27  46 NW8       29.96R
MORIARTY ARPT  FAIR      50  24  35 W21G30    29.90S
CLINES CORNERS MOSUNNY   45  25  45 NW43G54   29.78F
BELEN          FAIR      51  28  40 N6        29.94R
SOCORRO        FAIR      53  26  35 S6        29.93F

$$
NMZ524>526-539-540-212200-
SOUTHCENTRAL MOUNTAINS

CITY           SKY/WX    TMP DP  RH WIND       PRES   REMARKS
RUIDOSO        PTSUNNY   50  23  34 W21G28    29.91F

$$
NMZ527>531-212200-
NORTHEAST HIGHLANDS/NORTHEAST PLAINS

CITY           SKY/WX    TMP DP  RH WIND       PRES   REMARKS
LAS VEGAS      PTSUNNY   56  22  26 NW35G45   29.72F
RATON          CLOUDY    43  18  36 NE8       29.66S
CLAYTON        CLOUDY    56  22  26 W16G24    29.63F

$$
NMZ532>537-212200-
EASTCENTRAL PLAINS

CITY           SKY/WX    TMP DP  RH WIND       PRES   REMARKS
TUCUMCARI      CLOUDY    61  19  19 SW15      29.62F
CANNON AFB     SUNNY     60  25  26 W26G35    29.67F
CLOVIS AIRPORT SUNNY     61  27  27 W21G32    29.67F

$$
NMZ028-029-538-212200-
SOUTHEAST PLAINS

CITY           SKY/WX    TMP DP  RH WIND       PRES   REMARKS
ROSWELL        PTSUNNY   65  25  22 NW15      29.78F
ARTESIA        MOSUNNY   66  28  24 W18       29.79F
CARLSBAD       SUNNY     67  25  20 W26G36    29.80R
HOBBS          SUNNY     64  25  22 SW18      29.80F


$$



USA.gov is the U.S. government's official web portal to all federal, state and local government web resources and services.